Theta_e
329 333 335 343 342 342 341 341 341 341 341 340 340 341 342 342 342 341 340 338 341 341 338 339 341 346 346 348 347 348 348 347 347 347 347 347 346 346 346 347 346 346 347 346 348 347 347 347 348 347 345 345 343 342 341 342 342 341 340 339 338 338 338 338 337 336 337 337 338 339 338 338 338 337 338 338 338 337 335 334 333 329 329 333 336
331 332 335 336 342 342 341 341 341 340 340 339 340 341 341 341 340 340 340 341 341 339 339 341 342 344 347 347 347 348 347 347 347 347 347 346 346 346 347 347 346 345 346 345 346 347 347 347 347 346 346 345 343 341 341 341 341 339 337 336 337 338 338 337 337 336 336 337 336 337 337 337 337 337 337 338 338 336 334 333 333 328 327 332 333
332 332 333 336 344 343 340 341 341 340 339 340 339 338 338 338 339 339 339 342 340 340 341 342 342 344 346 347 347 348 347 347 347 347 347 347 347 347 346 345 347 346 345 346 346 346 346 346 346 346 345 344 343 343 342 339 338 337 337 336 336 337 334 334 335 335 336 337 337 336 335 336 335 336 336 338 337 337 335 335 334 333 329 333 331
332 333 335 338 345 343 340 340 340 339 340 340 339 339 338 337 338 338 338 340 340 340 341 342 344 348 347 347 348 347 347 347 347 346 347 346 347 347 347 347 347 346 345 345 346 345 345 345 346 345 344 344 342 342 339 338 337 337 337 337 336 336 335 335 335 335 335 334 334 331 330 326 331 335 335 335 336 334 333 331 333 334 335 335 334
334 336 338 336 337 342 341 340 340 340 339 339 338 338 338 338 339 338 339 340 340 340 341 344 346 346 346 347 347 347 347 346 346 346 347 347 346 347 346 347 346 346 345 346 346 345 345 344 344 344 343 344 342 340 339 338 338 337 337 337 336 336 335 335 334 334 334 333 332 328 323 325 327 333 335 335 334 333 334 334 332 331 332 333 335
335 336 336 332 334 338 342 340 340 339 339 339 338 337 339 340 338 337 339 340 338 340 345 346 345 345 347 347 347 347 347 347 346 346 347 347 346 346 345 346 346 346 345 345 346 344 344 343 343 342 343 342 340 339 338 337 336 335 335 336 335 333 334 334 334 333 332 331 330 323 323 324 326 330 336 336 334 333 333 333 334 334 332 332 333
335 336 335 333 332 337 342 340 339 340 340 339 338 339 340 339 337 339 340 340 340 341 344 344 344 346 346 347 346 346 347 347 346 346 346 346 346 345 345 345 345 345 345 345 345 345 344 343 342 342 343 342 340 338 338 336 335 334 333 333 333 333 334 334 333 332 330 325 321 321 322 323 324 326 334 335 334 333 332 333 334 333 332 332 333
336 335 334 332 333 339 341 340 340 340 340 339 339 340 340 340 339 340 340 340 341 342 343 346 346 346 347 346 346 346 347 346 346 346 346 346 345 345 345 345 345 344 345 345 345 344 344 343 342 342 342 341 339 337 336 335 335 335 334 333 333 334 334 333 333 332 330 321 320 321 323 323 324 326 332 333 333 333 333 332 332 332 332 332 332
335 335 334 332 331 340 341 341 340 341 341 340 340 340 340 340 341 340 341 342 341 342 343 346 347 347 346 346 346 346 346 346 346 346 346 346 345 345 345 345 345 344 344 344 344 344 344 342 342 342 342 341 339 337 336 336 335 335 334 334 334 334 334 333 332 330 324 321 320 320 322 322 322 324 331 334 334 332 331 330 332 331 331 332 331
336 335 333 331 331 340 340 341 340 341 341 342 341 340 340 341 342 342 343 344 343 343 344 345 346 346 346 346 346 346 346 346 345 345 345 345 345 345 345 344 344 343 343 344 343 343 343 342 342 341 341 340 340 338 337 336 335 335 334 334 334 334 333 332 330 327 319 318 319 320 325 330 323 325 331 334 334 332 331 331 330 331 331 330 330
337 335 332 330 330 339 341 342 343 341 341 343 344 343 342 341 343 344 345 345 345 344 344 346 346 345 345 345 346 345 345 345 345 345 345 345 345 345 345 344 344 343 342 342 343 343 342 342 341 340 340 340 340 338 337 336 335 335 335 334 333 333 333 331 327 319 318 318 318 318 328 332 323 326 334 334 334 333 335 334 334 332 331 330 330
338 336 332 330 338 339 340 343 343 340 341 343 344 344 344 344 344 345 345 345 345 344 344 345 345 345 345 346 346 345 345 345 345 345 345 344 344 344 345 344 343 343 342 342 341 342 341 341 341 340 340 339 339 339 337 336 335 335 334 334 334 333 331 329 320 318 316 316 319 320 318 321 324 330 334 334 333 333 332 332 332 332 333 332 330
337 336 332 331 332 338 340 342 342 342 342 343 343 344 344 345 345 345 345 344 344 344 343 343 344 344 345 346 345 345 344 345 345 344 344 344 345 344 344 344 343 342 341 340 340 340 340 340 339 340 339 339 339 338 337 335 335 334 334 334 333 332 330 326 316 318 318 318 320 319 318 320 324 331 331 332 332 333 334 332 332 332 332 331 330
337 336 331 331 331 341 338 340 341 343 343 343 343 343 344 345 345 345 344 344 344 344 343 343 344 344 344 345 345 344 344 344 344 344 344 344 344 344 343 343 342 341 341 340 339 339 338 339 338 338 338 338 338 338 338 336 335 334 334 334 332 330 328 326 324 317 319 318 321 321 318 322 325 332 332 332 331 331 332 331 330 330 330 329 330
336 336 330 331 332 334 341 338 340 341 342 344 343 344 343 344 345 345 344 344 344 344 343 343 344 343 344 344 344 344 344 343 343 343 343 343 343 343 343 342 341 341 340 340 338 337 337 338 337 338 337 337 337 337 337 336 336 335 333 332 330 329 325 317 318 315 318 319 318 319 318 321 335 332 334 334 332 331 330 330 329 329 329 329 329
337 336 331 330 330 330 335 339 337 339 339 340 341 342 343 344 345 345 344 344 344 343 343 343 343 343 344 344 344 344 343 343 344 344 343 343 342 342 341 340 341 339 339 339 338 336 336 336 336 336 336 336 336 337 336 336 335 334 332 331 329 328 324 320 315 314 314 319 319 320 319 322 334 332 331 332 333 332 331 330 330 329 328 329 329
337 336 333 332 328 329 330 333 333 336 336 337 338 339 341 344 344 345 345 345 344 344 344 344 344 344 344 344 344 344 344 343 344 342 341 342 343 342 342 339 339 339 339 339 337 336 335 334 334 335 336 335 335 335 336 335 334 332 331 330 329 327 324 321 317 313 316 319 319 320 322 324 337 331 332 331 331 331 331 330 330 330 331 335 334
335 334 334 333 329 328 329 329 329 330 331 334 334 336 338 341 342 342 343 343 343 343 342 343 343 343 343 341 341 342 342 342 340 340 340 340 341 339 339 340 339 339 338 338 336 335 335 334 333 334 335 334 334 334 334 334 333 332 331 330 328 325 323 321 314 314 317 322 314 320 320 336 332 331 331 331 330 330 330 333 333 333 334 334 334
332 332 334 332 330 328 329 327 327 326 328 330 329 332 334 337 338 339 339 340 340 339 338 340 339 339 338 338 338 338 337 337 337 337 337 337 336 333 334 338 339 338 338 337 336 335 333 334 333 333 334 333 333 333 332 332 332 332 330 328 326 323 322 318 313 313 315 316 316 316 320 336 334 334 332 331 333 333 333 332 334 334 334 334 334
332 332 333 332 330 329 327 327 327 326 326 327 327 328 331 333 335 336 337 337 337 336 335 335 333 332 332 333 333 333 333 332 332 332 333 334 334 329 332 337 339 338 337 337 336 335 334 333 332 332 332 332 333 332 332 331 330 330 327 326 323 321 314 312 311 313 314 318 320 315 329 337 334 334 334 333 333 334 333 333 333 334 334 333 333
331 332 333 333 331 329 328 327 326 327 326 327 326 327 330 331 332 332 333 333 333 333 332 330 327 327 328 327 328 329 326 328 328 327 328 327 325 327 330 335 337 338 337 336 335 335 334 333 332 331 332 331 329 328 328 329 328 327 325 324 321 315 313 311 311 314 313 314 317 312 330 334 332 333 333 333 333 333 332 332 333 334 333 333 332
328 330 332 334 334 332 329 328 327 326 326 327 326 326 329 333 333 331 333 331 330 329 329 329 332 326 326 327 327 326 325 323 324 330 323 325 325 325 327 332 335 336 336 336 335 334 334 333 333 332 332 329 322 309 311 320 324 323 320 318 312 311 310 310 310 312 313 312 316 317 332 333 332 332 331 332 333 331 330 331 332 333 333 333 333
326 328 330 333 334 334 330 328 327 327 326 326 327 328 332 335 335 333 330 329 330 328 327 327 325 326 325 325 323 323 323 322 322 324 324 321 324 324 327 330 333 333 333 335 335 335 334 334 333 334 330 321 311 309 306 305 307 318 315 309 308 309 309 310 310 310 312 311 312 323 330 330 329 330 329 330 331 331 330 331 332 332 332 332 332
325 328 329 332 334 333 332 329 327 327 326 326 326 329 334 335 336 335 333 331 329 329 327 326 325 325 324 323 323 321 321 322 326 327 326 324 322 322 325 327 328 328 329 329 332 332 333 330 328 325 317 310 305 306 306 306 308 307 308 307 308 307 309 309 309 309 309 310 311 321 328 331 329 329 329 330 331 330 330 330 332 331 331 331 332
327 329 329 331 333 334 333 330 328 327 326 326 325 328 334 334 335 335 334 332 331 329 328 326 324 324 323 323 322 320 322 324 325 325 325 325 325 326 326 325 323 320 323 321 321 318 320 319 316 314 312 310 310 307 310 311 308 310 310 309 309 307 307 308 309 309 309 309 310 320 324 330 331 329 330 330 330 330 331 330 330 330 331 331 331
327 327 328 330 332 333 333 333 330 328 326 325 325 327 333 333 333 334 333 333 331 330 329 328 325 324 323 322 322 323 325 326 325 325 325 326 326 325 325 324 323 323 322 321 319 320 319 316 316 314 309 308 310 308 307 310 312 310 311 309 308 308 309 308 308 310 311 310 311 319 323 328 331 330 330 330 330 329 330 329 330 331 330 330 330
324 326 328 329 331 333 334 334 332 330 328 326 324 326 331 333 334 333 332 331 332 330 329 329 328 326 323 322 324 325 325 325 325 325 325 325 325 326 326 325 324 323 322 321 319 318 317 316 314 314 308 308 308 306 307 307 307 309 311 310 308 310 310 309 308 309 311 310 312 318 322 328 330 330 330 329 329 329 329 329 330 329 329 329 330
322 324 326 328 329 331 333 334 332 332 331 329 326 326 329 331 333 331 331 331 331 331 330 330 329 327 324 324 325 326 326 325 325 324 325 325 325 326 327 325 324 324 322 321 319 317 316 314 313 309 309 308 308 309 309 308 307 306 309 308 308 307 310 308 308 310 310 310 310 314 319 324 328 330 331 330 329 330 330 330 330 329 329 329 329
318 321 323 325 327 329 332 333 333 332 332 331 329 327 326 329 331 331 330 328 331 331 331 331 330 328 326 325 324 325 327 326 325 325 325 324 325 326 325 324 325 324 323 321 320 317 314 313 313 313 310 310 309 311 309 310 307 306 308 310 308 308 307 307 306 308 308 309 310 311 317 321 325 329 330 329 330 329 329 329 329 329 329 329 329
319 320 320 322 325 327 330 331 332 332 332 332 330 328 326 327 329 331 331 329 330 331 331 331 330 329 327 326 324 325 326 326 326 326 324 324 324 325 324 324 323 323 322 321 319 318 316 310 310 310 311 310 310 312 309 312 311 310 307 309 309 310 309 309 308 308 309 307 309 310 314 318 322 327 328 329 329 329 330 328 328 329 328 328 328
318 318 320 321 322 323 326 329 331 331 332 331 331 330 328 327 327 329 330 329 330 330 331 331 330 330 329 327 325 324 326 327 326 325 324 324 323 323 323 324 323 322 322 321 321 318 316 314 314 313 312 312 312 310 309 311 311 311 308 308 311 308 310 308 308 307 307 309 309 309 311 315 319 323 327 330 330 329 329 328 328 328 328 328 327
317 318 320 320 321 321 323 327 330 331 330 330 330 331 329 328 327 328 328 330 330 329 330 330 329 330 329 328 326 325 324 326 327 326 325 323 323 322 323 322 322 323 322 321 320 318 317 315 312 312 311 310 312 309 310 310 311 312 309 309 309 310 309 308 309 308 308 308 308 310 310 311 316 319 323 328 329 328 328 328 328 327 327 327 326
319 319 319 319 319 321 322 323 327 329 329 329 330 331 331 329 328 327 327 328 329 329 329 329 329 329 329 328 327 326 324 325 326 326 324 324 324 323 322 322 323 323 323 321 321 320 317 316 314 310 310 308 308 311 308 307 309 311 308 310 308 310 310 308 310 308 309 310 310 310 312 311 313 317 319 322 327 329 329 328 328 327 326 325 325
320 320 319 319 320 321 322 322 324 326 327 329 329 330 330 330 329 328 327 327 328 328 328 329 329 329 329 328 327 326 325 325 325 325 325 324 323 323 322 322 323 323 322 321 319 319 317 317 317 316 314 312 312 312 310 311 310 308 309 308 307 310 308 309 309 310 308 310 310 310 310 310 312 314 315 318 321 326 328 328 328 327 325 324 322
320 319 319 320 320 320 320 321 321 323 324 326 326 328 329 329 328 328 327 327 327 327 328 328 328 328 328 328 327 326 324 324 324 325 324 324 323 322 322 322 322 322 321 321 320 319 318 318 317 315 316 314 313 312 310 311 310 311 311 309 310 310 308 310 309 309 309 311 309 308 309 309 309 312 314 314 316 319 325 327 328 327 325 323 322
320 320 320 320 320 320 319 320 320 321 323 324 325 326 327 329 329 325 327 327 326 327 327 327 327 327 327 327 327 326 324 324 323 324 324 324 323 322 322 322 322 321 320 320 319 318 318 318 317 317 315 314 313 313 309 310 309 311 310 309 309 309 310 309 310 310 311 309 309 310 310 309 310 310 311 314 316 317 320 324 326 325 323 321 321
322 321 320 319 319 320 319 319 319 320 321 323 324 324 326 327 328 328 327 327 326 326 327 327 327 326 326 326 326 326 325 324 322 322 323 323 323 323 323 322 320 320 319 318 317 318 318 317 317 315 315 314 312 312 309 308 309 309 308 307 309 309 309 311 311 311 311 309 310 308 308 309 309 309 309 311 313 312 315 319 323 324 321 318 319
322 322 321 320 320 320 320 319 319 319 320 322 323 324 325 326 327 328 325 326 326 326 326 326 326 326 326 325 325 325 324 324 323 322 322 323 323 322 322 320 319 319 318 317 317 317 317 317 315 313 312 312 312 310 310 308 307 308 308 308 309 307 309 309 310 308 309 310 309 309 310 310 308 309 309 310 310 310 309 314 318 316 314 315 317
322 322 322 322 321 320 319 319 318 319 319 320 321 322 323 324 326 327 326 326 325 325 326 325 325 325 325 325 324 324 322 323 323 322 322 322 322 322 321 319 317 318 317 317 316 314 314 314 313 312 308 311 313 310 311 308 309 306 309 310 308 309 309 308 308 308 309 309 310 311 309 309 308 309 310 310 309 309 309 309 309 308 309 313 316
322 322 321 322 321 320 319 319 319 319 319 319 319 320 321 321 322 324 324 324 325 324 324 325 325 325 325 324 323 323 322 322 322 322 322 321 322 322 321 319 317 317 317 317 316 315 313 312 312 312 309 308 307 308 308 308 307 306 308 309 307 307 308 308 308 308 309 308 309 309 309 308 308 309 309 309 309 309 308 308 306 306 307 311 314
321 321 320 321 321 321 319 318 319 319 319 318 318 318 318 319 320 322 322 324 324 324 323 324 324 324 324 324 322 322 321 321 321 322 321 319 321 321 321 319 317 316 317 317 317 315 314 314 313 311 312 311 309 307 306 307 308 310 305 307 308 308 309 308 309 309 309 309 308 309 307 308 307 308 308 307 307 307 307 307 307 307 307 307 310
319 320 320 321 321 321 320 320 319 319 319 319 318 318 319 319 319 320 321 322 322 321 322 323 323 323 323 323 322 321 321 320 319 321 320 320 320 320 320 319 317 317 317 316 315 313 313 313 312 310 309 312 311 307 307 310 306 310 305 302 302 305 307 308 309 310 310 309 309 309 308 308 308 307 306 305 306 306 306 306 306 306 306 306 306
319 320 321 321 320 321 321 320 319 318 319 319 319 318 319 319 320 319 320 320 321 322 322 321 321 321 322 322 322 321 321 320 320 319 320 320 320 320 319 319 318 317 315 315 315 314 314 313 313 314 310 306 310 307 308 312 308 301 303 303 304 300 299 301 302 305 308 307 305 307 307 307 308 306 306 306 306 306 306 306 306 305 305 305 305
318 318 319 320 321 320 321 320 319 319 319 319 317 319 319 319 319 319 317 319 318 317 319 319 319 319 320 321 321 321 321 320 320 319 319 320 320 320 320 319 318 317 317 316 315 315 314 314 313 313 314 312 310 310 310 310 309 307 303 306 302 298 300 297 295 300 300 305 305 306 304 306 305 303 303 304 305 305 305 303 304 305 305 303 302
316 317 319 320 321 321 321 321 320 319 319 318 318 319 318 316 317 313 312 312 312 314 315 316 318 318 319 320 320 321 321 321 320 320 319 319 320 320 320 319 319 318 317 317 317 316 316 316 315 314 314 315 314 310 306 308 310 312 308 299 300 299 301 297 295 303 299 305 301 301 301 303 303 303 303 303 305 306 305 304 304 304 303 302 301
313 316 319 320 321 321 321 321 321 320 319 319 318 318 317 317 316 315 313 314 314 314 314 315 316 317 318 320 319 320 320 320 321 320 320 319 319 320 320 319 319 318 318 318 318 317 316 316 316 316 314 316 317 314 309 304 310 310 312 312 306 303 298 300 300 297 294 296 297 300 300 300 300 302 302 303 304 305 304 304 303 303 302 301 300
310 314 317 319 320 321 321 321 321 321 320 319 318 317 317 317 317 316 316 315 315 316 318 318 318 318 318 318 319 319 320 320 320 321 320 319 319 319 319 320 320 319 318 318 318 318 318 317 316 316 316 316 316 314 313 309 306 309 311 312 310 300 297 301 302 293 297 293 300 302 302 300 301 301 302 303 303 304 303 303 303 303 302 301 300
308 311 315 317 318 319 320 321 321 320 320 320 318 318 318 317 317 316 316 316 316 316 317 318 318 317 317 318 318 318 319 319 320 320 320 320 319 320 320 319 319 320 318 318 318 318 318 318 316 317 317 316 316 315 315 311 309 309 309 310 309 309 301 301 299 305 301 300 302 299 299 302 301 302 303 303 303 303 303 301 302 302 302 301 299
307 309 312 315 317 319 319 320 321 320 320 319 318 318 318 318 318 317 316 317 317 317 317 316 317 316 316 317 317 318 318 318 319 319 320 320 318 319 320 319 319 319 317 319 318 318 318 317 316 317 317 317 317 317 316 315 311 311 306 308 310 310 308 305 300 299 303 298 305 305 305 300 301 302 302 303 304 304 304 303 302 302 301 301 299
307 308 310 312 315 317 318 319 320 321 321 320 318 318 318 317 317 317 316 317 316 317 316 315 315 316 316 316 317 317 318 318 318 319 319 319 320 319 319 320 319 320 317 318 318 318 318 318 318 318 318 318 318 317 316 316 314 312 310 309 309 309 310 310 308 307 305 307 306 307 305 303 303 305 304 304 305 304 304 303 302 301 300 299 298
305 306 308 310 313 316 317 318 319 321 320 320 319 318 318 318 317 317 317 317 317 316 315 315 315 314 315 316 317 317 318 318 318 318 319 319 319 319 319 319 320 318 317 318 318 318 318 318 319 318 318 318 318 317 315 316 316 313 310 310 310 310 309 308 309 309 309 305 304 305 308 308 308 309 305 305 304 305 304 303 302 301 300 299 297
Wind_Speed
5 6 5 6 11 10 9 8 8 8 8 9 8 8 7 6 7 8 9 8 10 9 8 7 10 11 10 10 10 11 11 12 12 12 12 12 12 14 16 16 16 16 14 15 17 17 18 19 19 19 19 19 19 18 18 18 18 18 18 19 20 18 18 18 19 18 18 19 18 18 18 18 19 19 19 20 20 18 15 17 13 10 9 15 19
8 5 4 3 11 11 10 9 9 9 9 7 9 9 8 6 6 6 8 9 9 8 9 9 8 10 10 9 10 11 11 12 12 12 12 12 14 15 16 15 16 16 15 16 15 17 17 18 18 18 18 19 18 17 17 17 17 17 17 17 18 18 18 18 17 16 17 18 19 19 19 19 19 19 20 20 19 19 15 17 15 8 8 17 17
5 3 2 3 9 10 9 9 9 10 9 8 8 8 7 6 6 6 8 10 7 8 9 9 10 10 10 10 10 11 11 12 12 12 13 13 14 15 16 15 16 16 15 15 16 17 17 17 17 18 18 18 17 17 17 17 17 18 18 18 18 18 18 17 16 15 15 15 14 14 17 19 20 19 19 20 20 20 17 18 17 14 11 18 14
5 3 1 4 7 8 9 9 9 8 8 9 9 9 7 7 8 7 6 9 8 8 9 9 11 10 10 9 10 11 12 12 12 13 14 14 15 15 15 15 15 16 16 16 17 17 17 17 16 16 16 17 17 16 16 16 16 17 18 19 19 18 18 17 15 14 13 12 11 9 5 6 12 18 18 18 19 18 14 17 18 18 19 17 18
7 3 2 2 3 7 9 9 9 8 9 8 8 9 8 8 8 10 9 9 9 10 10 10 9 10 10 10 11 12 12 12 13 14 15 15 16 15 15 15 16 15 16 17 16 17 17 16 16 17 17 17 17 16 16 16 16 16 17 18 18 17 18 16 14 13 13 12 12 7 5 5 5 16 17 18 17 14 13 16 17 16 16 18 18
7 5 3 3 2 5 8 9 9 9 9 8 7 7 8 8 7 6 9 10 9 10 11 10 9 10 10 10 11 11 12 13 13 14 15 15 14 15 15 16 16 15 16 16 16 16 16 16 16 17 17 16 16 15 15 16 16 16 16 16 16 15 15 14 14 13 11 11 9 6 7 6 4 7 19 18 16 12 17 17 17 17 16 16 17
8 5 5 4 3 5 7 9 10 9 9 9 8 7 8 8 7 7 8 9 10 9 12 10 10 10 10 10 11 11 12 12 13 13 14 15 15 14 15 15 15 15 15 16 16 16 16 15 16 16 16 16 15 15 15 15 15 15 15 15 15 15 14 13 12 12 11 7 6 5 6 7 5 4 17 17 16 16 16 16 17 16 16 15 15
6 5 4 4 4 8 10 10 10 10 10 9 9 9 8 9 8 7 8 8 9 9 10 10 9 10 10 10 11 11 11 12 12 13 13 13 14 14 14 14 15 15 15 15 15 15 15 15 15 15 16 15 15 15 14 15 15 15 15 15 16 15 13 12 12 11 10 5 5 6 6 5 4 4 15 17 17 16 15 16 16 16 16 15 11
7 5 5 4 4 9 10 11 12 11 11 10 10 9 8 8 8 8 6 5 8 8 8 8 9 9 9 10 11 10 11 11 12 12 13 13 14 14 13 14 14 14 14 14 14 15 15 15 14 14 14 15 14 14 14 15 15 15 15 15 14 13 12 11 9 9 5 4 4 5 5 4 4 5 12 15 16 15 14 11 13 15 16 12 14
7 5 5 4 4 9 10 10 12 12 12 10 8 8 9 9 9 8 7 5 6 7 7 8 8 8 9 10 10 10 11 11 11 12 12 13 12 13 13 13 13 13 13 13 14 14 15 14 14 14 13 13 14 13 14 14 14 14 14 14 12 11 10 9 9 6 4 4 4 4 4 5 3 4 11 13 14 13 9 4 4 7 10 12 13
7 6 5 4 4 9 11 10 10 11 12 11 9 8 8 9 10 8 7 7 7 8 8 9 9 8 9 10 11 10 11 10 11 11 11 12 12 13 13 13 12 12 12 12 12 13 14 14 14 14 13 13 13 13 13 13 13 13 13 12 10 9 9 8 7 4 4 4 4 3 3 4 1 1 12 12 11 8 4 6 8 11 13 14 13
8 6 4 4 5 9 11 9 10 11 11 11 10 9 9 7 9 9 9 8 8 8 9 9 9 9 9 11 11 11 10 10 11 11 10 11 12 12 13 12 12 12 12 11 11 12 12 13 14 14 13 12 13 13 12 12 12 12 12 11 10 9 8 8 5 4 4 4 4 2 3 1 2 7 12 12 12 11 10 11 10 12 12 11 11
8 6 4 4 4 8 10 9 10 10 10 10 10 10 9 9 8 10 10 10 9 9 9 8 9 9 9 10 11 11 11 10 10 10 10 11 12 12 12 12 11 11 11 10 11 11 11 12 12 13 13 12 12 12 12 11 12 12 12 11 10 8 7 7 3 3 4 4 3 4 4 3 3 9 10 11 10 11 11 11 10 10 11 9 9
8 6 4 4 3 7 9 8 9 9 9 10 10 9 9 10 10 10 11 11 10 8 9 9 8 9 9 9 10 11 10 11 10 10 10 10 11 12 12 12 11 10 10 10 10 10 10 11 11 12 12 12 12 11 11 11 11 11 11 10 8 7 7 5 5 4 4 4 3 4 4 3 1 9 9 9 9 9 9 9 8 9 8 8 9
10 6 4 3 3 4 7 7 9 9 8 8 8 7 9 10 10 10 11 11 10 9 9 10 9 9 9 9 9 10 10 10 10 10 10 10 11 11 11 11 10 9 9 9 9 9 9 10 10 11 11 11 11 11 11 11 11 10 9 9 7 6 6 4 3 3 3 3 3 3 4 3 5 9 10 9 8 8 8 7 6 7 6 7 6
10 7 3 3 3 3 4 5 8 9 7 8 7 7 8 9 9 11 10 10 10 9 8 9 9 9 9 9 9 10 10 10 8 7 7 7 10 10 10 10 9 9 9 8 8 8 9 9 9 9 10 10 10 10 11 11 10 9 8 7 6 5 6 4 3 3 3 3 3 3 3 3 3 7 8 8 7 7 6 7 6 5 5 5 5
7 7 6 4 3 3 3 3 4 8 7 7 8 7 5 6 6 8 8 8 9 8 7 8 8 7 9 8 7 7 7 8 7 6 7 7 8 7 7 9 9 9 9 8 7 8 8 8 8 8 9 10 10 10 10 10 9 8 7 6 5 5 5 5 4 2 3 3 2 3 4 3 3 7 6 6 7 6 4 4 6 6 8 11 11
6 6 7 6 4 3 3 3 3 4 4 5 7 7 5 7 6 4 7 7 8 7 6 9 7 6 7 7 6 6 7 7 8 7 6 6 6 6 6 7 9 9 8 8 7 7 7 8 8 8 8 10 10 10 9 8 7 6 5 5 5 6 5 4 3 1 2 1 1 1 2 5 5 5 5 6 5 5 4 7 7 7 7 9 9
6 6 6 5 5 3 4 3 4 3 4 4 4 4 6 6 6 6 3 7 7 7 7 8 8 7 7 6 6 7 7 7 8 8 7 7 7 6 6 6 8 8 8 8 7 6 7 7 7 7 8 9 10 10 8 7 6 5 5 6 6 5 4 3 3 2 1 1 1 1 2 4 5 5 5 3 7 6 6 5 7 7 8 8 8
7 7 6 6 5 4 4 3 4 4 4 4 4 4 5 7 7 6 4 3 6 7 7 8 8 8 8 7 7 6 6 6 8 6 7 7 7 5 5 5 7 8 8 8 7 5 6 6 6 7 7 8 9 8 7 7 6 5 5 6 6 5 3 2 3 2 0 0 0 1 3 3 3 3 3 4 4 5 5 7 7 7 7 6 6
4 7 7 6 6 5 5 4 4 4 4 4 4 4 4 7 6 6 5 3 4 7 8 9 9 8 8 7 7 5 4 4 4 4 6 4 6 7 6 4 5 6 7 7 7 5 4 5 5 6 6 7 6 6 6 6 6 5 4 5 6 4 3 3 3 2 1 1 0 1 3 3 1 2 2 3 4 3 5 6 7 6 6 6 6
7 7 8 7 7 6 6 6 5 5 4 4 3 3 3 5 4 4 4 3 4 5 5 4 6 4 6 6 4 4 4 3 4 5 4 4 5 7 6 5 5 6 6 7 7 5 4 3 3 4 5 5 4 3 3 4 5 5 4 3 3 3 3 3 3 2 1 2 1 2 4 3 4 4 4 4 4 4 5 5 6 6 7 6 6
10 8 8 9 7 7 6 6 6 6 5 4 4 4 4 4 5 4 4 4 4 4 4 4 4 5 4 3 3 3 4 3 3 4 4 5 5 7 7 6 6 6 6 6 6 4 3 2 2 4 5 4 2 1 2 2 2 3 3 2 2 2 2 1 2 1 2 1 1 4 5 4 4 5 6 6 5 5 5 4 5 5 6 6 6
9 8 8 7 8 8 8 7 7 7 6 5 4 5 5 4 5 4 4 3 3 4 4 5 4 5 5 4 3 3 3 3 3 5 5 3 2 4 6 7 7 7 6 5 6 4 2 5 6 4 3 2 1 1 1 1 0 1 1 1 1 2 3 3 3 3 2 2 2 4 6 6 4 4 5 5 5 6 4 4 4 4 4 5 5
8 7 7 8 9 9 8 7 6 6 7 6 5 5 5 5 5 5 4 4 4 4 4 5 5 5 5 4 4 4 3 3 3 2 3 3 2 3 3 3 3 4 6 4 2 2 2 0 1 1 0 0 0 0 0 1 1 1 1 1 1 2 2 2 3 2 3 3 3 5 6 6 6 4 4 5 6 4 3 3 3 4 4 4 5
6 9 11 9 10 9 9 8 7 6 7 6 6 6 6 8 8 5 6 5 5 5 5 5 5 5 5 5 4 4 4 4 4 4 3 4 4 4 3 3 3 4 2 4 3 2 2 1 2 2 1 0 1 2 1 1 3 3 3 1 2 2 3 3 2 3 4 3 3 6 6 6 7 7 6 6 5 4 3 3 3 4 5 5 4
8 10 9 9 9 10 10 9 9 8 8 5 5 6 6 8 6 6 6 6 5 6 6 5 6 6 6 5 6 5 5 5 5 4 6 4 5 4 4 4 4 4 2 3 3 3 2 2 3 3 2 2 3 2 2 2 2 3 3 3 2 3 3 3 3 4 4 4 4 6 6 5 7 6 7 7 6 4 3 3 3 5 5 5 4
7 9 9 9 10 11 10 10 9 9 8 7 6 6 6 6 7 7 7 7 6 7 6 6 6 6 6 6 6 7 7 6 5 6 5 5 6 6 5 5 4 4 3 3 4 3 3 3 3 4 3 3 4 4 3 3 3 2 3 3 2 3 4 3 3 3 3 3 4 5 6 5 5 6 6 7 6 5 5 5 5 5 6 7 7
10 11 9 9 11 10 11 12 10 11 8 8 8 7 6 7 7 7 8 7 7 6 6 6 6 6 6 7 7 7 6 7 7 7 5 6 6 6 5 6 5 5 4 4 4 4 4 4 4 5 4 4 4 5 3 4 3 2 3 4 3 2 3 2 3 3 3 3 3 4 6 6 5 5 6 6 6 6 5 5 6 6 7 7 8
12 9 10 10 9 10 12 12 11 10 10 9 9 8 8 8 9 8 8 8 7 6 7 7 6 6 6 7 7 7 7 8 8 7 7 7 7 7 6 6 6 6 5 5 5 4 5 4 4 4 4 5 4 5 3 4 4 3 2 3 3 3 3 3 3 3 3 3 3 4 6 6 5 5 6 6 5 5 6 6 6 7 8 9 8
9 12 11 10 8 10 12 12 11 10 10 10 9 10 9 10 9 8 8 8 8 7 7 7 7 7 7 7 7 7 7 7 8 9 7 7 8 7 8 6 6 6 6 6 5 5 4 5 6 6 5 5 5 4 4 4 4 4 3 3 5 3 4 3 3 3 3 4 3 3 4 5 5 5 6 7 6 5 5 5 6 6 7 8 9
12 14 11 7 9 12 12 12 12 11 11 11 10 10 10 10 9 8 9 8 8 8 8 7 7 7 7 7 7 7 7 7 8 8 9 8 8 8 7 7 8 6 6 6 5 5 5 5 4 5 4 4 4 3 3 4 4 5 3 4 3 3 4 3 3 3 4 3 4 4 4 5 6 7 5 7 7 7 7 7 6 5 6 7 8
11 10 9 9 13 11 11 12 12 12 13 13 11 9 9 9 9 9 9 8 8 8 8 8 7 7 7 8 7 8 7 8 7 8 8 8 9 8 8 8 8 7 6 7 7 5 4 4 5 3 3 3 3 4 3 3 4 5 3 4 3 4 4 3 4 3 4 4 5 5 5 4 4 7 9 8 8 9 9 8 6 6 5 4 5
10 7 8 13 11 7 8 8 11 13 14 12 11 9 9 8 8 8 8 9 8 8 8 8 8 7 8 8 8 9 8 8 8 8 7 8 8 9 9 8 7 7 6 5 6 5 6 5 7 4 5 5 6 5 4 5 4 3 4 3 2 5 4 4 5 5 4 5 5 4 5 4 4 4 5 9 9 7 8 8 7 6 5 3 4
7 7 14 14 8 10 8 9 10 12 12 13 12 11 10 9 9 8 8 8 8 9 8 8 8 8 8 8 9 9 9 9 9 8 8 7 8 9 9 8 7 6 6 6 6 7 6 7 6 6 5 5 5 5 5 5 4 5 5 3 5 5 4 5 4 4 5 6 4 4 4 5 5 4 5 4 5 7 7 8 8 6 5 4 4
13 12 11 7 11 11 10 10 10 13 13 13 11 11 11 10 9 8 8 9 8 9 9 9 8 8 8 8 10 10 10 10 9 8 8 8 8 8 8 7 8 7 7 6 6 7 7 6 6 6 6 6 5 6 4 5 4 5 3 3 5 4 5 5 5 5 6 4 4 5 5 5 5 5 5 5 5 6 9 8 8 8 6 4 5
12 11 12 10 11 12 12 12 13 14 13 12 11 10 10 10 10 9 10 9 10 9 9 8 8 9 9 9 9 10 10 10 10 9 9 9 8 8 7 7 6 7 7 7 7 8 7 7 6 6 6 6 5 6 4 4 4 4 4 4 5 6 5 6 6 6 4 4 5 4 4 5 5 5 6 5 4 3 6 7 6 6 5 3 3
11 12 12 12 14 11 11 13 12 11 11 12 12 11 10 9 9 9 9 10 11 10 9 9 10 9 9 9 10 10 10 10 10 10 9 9 8 8 7 7 7 7 7 7 8 7 6 6 7 5 6 5 5 4 5 4 3 4 4 5 6 4 6 6 6 5 5 5 5 5 7 5 5 5 5 5 5 5 4 5 7 7 6 4 3
10 12 12 12 9 9 10 12 12 11 11 11 10 10 9 8 8 9 10 11 10 10 10 10 10 9 10 10 10 9 10 10 10 10 10 9 8 8 8 7 7 7 8 8 7 7 6 6 7 5 4 6 6 4 5 3 5 4 5 7 5 6 6 5 5 6 6 6 6 6 5 5 5 5 5 5 5 5 5 5 5 5 5 6 5
10 10 11 11 12 11 10 10 11 12 10 9 8 9 9 10 10 9 10 11 11 10 10 10 9 10 10 10 10 10 10 10 10 10 10 10 9 9 9 7 8 8 9 9 9 7 8 7 7 6 4 4 4 4 2 2 2 3 6 6 5 5 7 6 6 6 6 6 6 5 6 5 5 5 5 6 5 6 6 6 5 6 5 6 7
10 10 11 12 13 14 11 14 13 12 11 10 10 11 12 10 9 12 14 13 11 10 10 10 10 10 10 10 11 11 10 11 10 10 11 10 10 9 9 9 8 9 9 10 9 8 7 7 6 5 7 6 5 5 4 2 3 6 4 7 7 6 9 7 8 7 7 7 6 6 6 5 6 5 6 5 5 5 5 5 5 5 5 5 6
12 12 14 16 15 14 15 16 10 11 13 13 12 11 12 13 14 14 13 10 10 11 12 10 11 9 10 11 10 10 11 11 10 11 11 11 10 10 10 10 9 9 9 8 8 7 7 7 5 4 5 8 6 6 5 5 4 6 5 5 4 4 7 8 9 9 8 7 7 7 6 7 7 6 5 5 5 5 5 5 5 6 6 5 4
14 15 15 12 12 13 15 12 11 12 13 13 12 13 12 11 11 10 10 8 8 9 9 8 8 10 11 11 11 11 11 11 11 11 11 11 11 11 11 9 10 9 8 9 7 8 8 8 8 9 5 4 5 4 6 9 5 2 2 2 6 5 4 2 4 6 7 6 4 6 7 6 7 5 5 5 5 5 5 5 5 6 5 6 6
11 10 11 14 13 13 13 13 12 13 12 14 14 13 12 10 9 7 5 8 7 5 7 8 8 10 13 13 12 12 12 12 11 11 11 11 12 12 9 9 10 9 10 10 10 11 8 8 9 8 7 7 6 6 6 8 7 6 1 6 3 1 9 3 2 5 2 5 6 7 5 6 5 4 4 5 6 6 5 5 6 6 6 4 4
12 13 13 14 12 16 16 16 15 15 14 14 16 12 9 7 7 4 2 3 2 5 6 8 11 12 11 12 15 11 12 12 11 12 12 12 11 11 10 10 10 10 10 10 11 11 10 10 10 9 11 11 9 4 5 7 9 8 7 3 1 1 6 4 0 5 1 1 2 3 4 5 5 5 5 5 4 5 6 6 6 6 6 6 6
13 14 13 15 15 14 14 14 12 12 13 14 14 11 12 11 10 10 10 9 10 10 12 15 13 13 15 11 7 11 12 11 11 12 12 11 12 11 11 11 11 10 10 11 10 8 10 10 11 10 11 11 10 6 7 5 8 10 10 10 6 6 3 2 3 5 3 2 2 1 2 3 3 4 5 5 5 5 6 7 6 6 6 6 5
16 12 12 14 14 13 12 14 13 12 12 11 12 11 11 11 14 15 15 15 15 13 12 10 10 11 8 9 10 9 11 13 12 12 12 12 11 11 12 12 11 11 10 10 11 11 10 10 8 10 11 8 9 10 11 5 3 8 8 10 8 3 1 2 6 1 6 2 1 1 1 3 4 4 5 6 6 6 6 6 7 7 7 7 6
13 8 11 11 12 14 13 14 12 12 12 12 13 14 14 14 14 14 13 14 15 16 13 12 10 7 8 10 8 9 11 12 13 13 13 12 12 12 12 12 12 11 10 11 12 10 9 8 9 10 9 9 10 11 11 6 10 6 7 10 9 8 4 2 2 6 6 7 7 1 1 3 4 5 6 7 7 8 8 8 8 7 7 8 7
8 10 13 12 12 12 12 11 12 12 12 13 14 15 15 15 15 14 14 13 14 13 8 7 8 8 9 8 10 10 10 12 13 13 13 13 12 13 12 12 12 12 10 10 10 10 12 11 9 9 10 9 9 10 9 9 8 10 5 8 8 9 6 7 4 2 6 5 12 6 6 0 2 4 6 7 7 8 9 9 9 9 8 8 8
9 9 10 8 9 9 11 13 14 12 12 13 14 15 16 14 14 14 16 15 12 11 8 9 8 8 11 11 9 9 10 10 11 13 13 13 13 13 12 13 13 11 10 11 10 11 11 11 11 11 10 11 9 9 11 10 8 7 8 5 7 6 6 7 7 7 6 9 13 8 4 4 6 5 7 8 10 9 9 7 7 7 8 8 7
7 8 10 9 9 10 12 13 16 12 12 14 15 17 15 15 15 16 17 18 15 12 10 11 9 8 11 12 11 11 9 11 10 10 12 13 13 12 12 13 11 11 11 11 12 11 11 11 10 10 11 12 10 10 11 11 9 8 9 9 10 10 11 11 10 8 9 7 7 9 9 8 11 12 8 10 10 11 10 8 9 10 10 8 7
Wind_Direction
216 183 192 209 154 153 157 157 147 129 139 132 131 119 112 119 112 104 100 106 106 98 111 117 108 102 95 93 97 98 99 97 97 98 96 96 96 95 94 91 96 94 92 93 93 92 89 88 87 86 84 81 79 78 78 78 79 81 82 84 78 77 76 75 76 76 75 77 77 77 78 77 75 78 79 71 75 73 67 67 59 60 62 62 63
171 203 183 196 161 153 152 152 141 132 130 143 139 128 119 107 115 111 117 104 99 108 112 112 114 107 102 100 102 102 99 97 96 93 94 97 97 100 100 102 103 104 101 99 97 90 88 87 88 88 87 85 82 81 82 83 83 84 83 80 81 82 81 77 73 76 78 78 82 78 73 73 75 72 72 67 74 77 77 73 69 68 69 67 65
149 171 206 204 168 153 151 148 137 137 142 142 118 116 118 128 113 118 122 113 113 123 122 122 126 111 100 101 105 103 100 100 99 97 93 94 100 101 105 109 103 99 97 95 89 88 87 87 88 88 88 86 85 85 86 86 88 88 87 86 87 82 81 84 84 76 62 55 49 53 69 76 75 76 76 71 69 68 70 72 71 70 76 77 77
144 189 199 202 167 144 150 149 141 144 142 133 130 126 134 136 136 140 138 125 121 121 127 139 115 104 108 110 107 104 103 103 101 101 100 102 101 105 105 104 104 104 101 94 90 88 88 86 88 91 92 92 91 90 90 92 91 90 88 87 88 88 87 85 79 68 61 56 53 46 31 36 68 75 72 73 72 67 67 70 68 67 71 70 67
147 165 184 170 132 136 149 148 146 149 145 138 140 135 142 145 149 153 150 125 137 139 140 122 113 120 116 114 110 107 105 105 106 105 104 103 105 106 107 108 107 106 102 97 93 90 88 88 92 97 98 95 94 94 93 94 93 92 89 88 91 92 91 85 76 67 60 55 53 48 38 38 64 78 77 72 72 67 68 70 72 69 63 65 67
149 153 153 138 123 137 144 150 147 151 144 144 135 146 149 142 149 160 132 132 137 139 127 134 129 119 116 117 114 109 108 107 108 107 106 107 106 109 111 108 106 104 101 99 94 91 91 93 97 101 102 101 98 96 96 95 94 91 90 91 92 91 85 80 77 73 69 66 61 57 50 50 39 63 78 80 76 71 71 75 73 71 70 65 61
148 152 149 152 143 141 142 152 149 152 149 146 151 160 147 137 151 158 139 138 145 158 134 128 127 119 120 118 112 111 110 110 109 109 110 109 112 113 111 108 105 101 100 98 95 93 93 94 98 103 105 103 100 99 99 98 96 95 95 96 95 92 83 75 68 65 64 62 59 52 51 46 42 42 76 78 77 72 73 74 74 72 71 64 52
141 149 157 155 154 150 152 153 156 158 148 153 158 158 151 148 149 158 150 151 148 143 128 111 112 120 120 118 115 113 112 111 109 108 110 111 110 108 105 105 101 99 100 99 97 95 95 96 98 105 109 107 104 104 103 102 99 95 96 97 96 90 80 71 61 55 55 57 56 61 64 57 42 55 78 79 78 74 74 78 77 74 74 72 58
152 155 157 153 164 156 158 159 160 156 152 157 154 153 150 144 148 160 142 139 141 138 128 113 108 116 120 116 114 113 111 109 108 108 108 108 108 107 106 103 100 99 99 99 97 95 95 97 98 102 109 111 109 107 106 105 103 101 99 97 92 84 78 72 64 55 48 52 51 71 83 79 61 66 78 79 80 82 82 71 71 75 73 73 74
156 154 158 155 170 165 160 165 164 160 163 163 163 161 155 150 151 157 147 145 138 138 132 126 123 125 121 117 116 115 113 110 109 110 109 110 108 109 107 104 99 97 94 94 96 94 95 96 97 98 104 111 112 110 109 107 106 106 104 100 93 85 78 69 58 48 45 38 42 46 100 111 114 95 86 86 88 90 99 114 113 92 77 68 69
158 158 158 159 176 169 164 172 167 164 168 171 173 171 160 156 157 156 150 152 148 139 140 136 131 131 126 124 122 118 115 115 115 113 113 113 113 111 108 105 100 96 95 95 98 98 97 96 97 99 103 111 117 116 113 111 111 111 109 105 98 90 77 67 59 51 46 47 51 29 40 73 11 64 90 97 105 118 129 92 88 81 81 75 70
161 163 160 166 182 176 171 173 165 168 172 176 177 172 165 155 162 154 154 156 154 148 139 135 136 133 134 129 124 123 118 117 120 119 117 117 117 117 111 107 104 100 96 97 99 101 98 96 95 97 102 110 118 120 118 116 115 113 112 109 104 94 85 74 64 56 45 42 43 42 31 37 86 76 79 80 82 86 84 79 76 72 71 75 70
163 169 169 171 183 180 172 169 165 171 176 177 182 175 172 166 161 164 155 153 159 153 148 138 136 135 137 132 128 125 125 123 124 127 129 129 126 117 113 110 109 105 101 99 99 97 97 96 95 95 100 109 117 122 122 119 119 119 114 112 107 99 91 90 90 72 50 40 31 20 21 4 65 83 83 85 81 76 73 70 71 69 63 63 64
164 175 173 177 186 184 174 163 165 170 175 183 184 179 175 178 168 176 158 156 159 156 146 143 143 142 138 135 130 131 130 130 129 128 126 125 122 124 119 117 115 112 110 102 100 98 97 98 98 98 99 104 114 123 124 124 122 121 116 109 103 95 82 73 71 66 56 34 23 13 2 351 47 83 81 80 75 70 70 71 67 66 60 59 51
171 176 180 179 190 183 182 165 165 168 176 181 177 183 179 181 174 177 162 161 159 154 156 148 148 150 142 144 137 137 135 137 138 133 132 132 131 124 123 122 121 118 114 105 100 98 98 98 98 99 98 101 107 118 125 126 124 120 115 110 101 91 94 83 69 62 53 38 14 6 356 336 55 72 77 76 73 70 70 78 71 59 58 46 38
171 171 173 192 190 192 185 172 170 169 179 178 170 172 188 180 179 174 166 164 159 161 163 155 151 154 148 149 147 142 140 141 126 120 121 127 132 130 130 130 127 126 121 108 104 99 98 99 100 100 101 101 105 111 120 124 124 122 116 112 105 97 103 101 79 58 48 38 10 8 354 328 35 83 88 89 82 75 72 67 69 61 54 49 22
173 173 172 187 197 195 189 176 174 174 175 179 164 169 186 167 189 181 169 166 162 165 164 148 154 157 152 151 153 141 136 123 100 106 125 137 137 137 135 136 135 132 129 118 110 104 100 99 103 104 105 105 104 108 115 122 125 122 118 117 108 102 104 101 88 60 50 39 19 1 347 333 300 97 96 76 85 89 78 42 44 39 25 18 18
176 179 184 181 190 196 192 180 169 163 170 173 171 173 176 163 186 207 169 168 167 166 159 145 151 143 138 149 147 126 121 119 113 101 104 112 125 127 132 139 141 140 133 123 118 111 106 104 107 111 110 107 106 106 110 117 122 123 119 117 113 113 107 102 104 86 61 50 5 338 345 354 59 102 84 63 74 80 82 43 21 13 10 14 10
180 189 184 181 192 187 194 184 168 159 163 168 175 179 173 162 171 182 181 165 172 161 155 144 142 135 138 129 134 122 117 116 113 110 107 113 115 111 119 135 152 150 142 133 126 118 112 109 107 112 115 110 106 105 107 110 111 105 123 133 128 121 116 114 124 112 85 31 341 358 332 22 54 62 69 68 46 31 48 42 28 19 23 23 22
179 189 190 192 187 186 191 190 175 170 166 170 176 171 180 156 170 187 165 174 170 161 144 140 135 137 142 136 131 123 121 121 122 117 121 120 120 121 127 147 156 158 152 144 135 130 123 115 116 119 120 113 104 104 103 105 103 103 134 142 139 134 135 147 145 142 162 245 299 334 348 29 62 71 44 30 36 31 20 22 27 23 32 25 27
189 192 192 195 191 189 189 185 189 178 171 172 177 173 174 166 172 185 180 158 169 155 150 144 141 145 146 142 133 125 127 130 127 129 128 132 134 134 138 144 150 152 155 154 145 142 133 123 121 122 110 94 90 85 84 81 83 85 106 148 152 154 168 167 174 158 196 264 317 317 324 338 108 79 59 19 26 27 16 4 13 24 21 23 29
194 195 200 196 196 196 190 187 185 188 175 172 180 179 172 169 172 183 186 162 160 152 148 147 145 139 141 141 140 140 140 141 143 134 138 142 146 144 142 143 137 140 146 153 155 150 152 136 129 118 101 93 84 75 70 74 72 85 97 122 157 182 184 183 179 191 221 261 291 291 310 337 335 334 340 334 341 348 352 355 7 15 17 21 23
202 199 200 197 198 194 190 190 188 185 180 180 180 185 175 170 177 177 178 164 162 153 152 148 143 145 142 141 142 144 146 149 150 146 147 156 161 156 151 149 142 140 145 147 144 149 159 164 87 83 92 83 75 63 75 85 70 65 85 108 150 192 197 187 217 218 240 255 298 285 297 293 297 311 311 312 310 318 327 357 9 11 14 19 17
200 198 195 196 198 199 194 192 190 185 179 185 182 187 183 164 178 177 173 172 162 162 159 155 153 153 154 153 151 152 141 139 136 137 127 140 156 168 158 150 145 141 135 130 140 151 130 64 56 61 64 48 76 60 65 51 93 128 80 111 147 182 190 207 211 234 263 281 273 277 288 286 275 292 301 303 306 307 330 347 2 357 1 6 13
194 187 198 201 198 197 195 195 192 185 182 183 183 192 187 169 177 182 177 176 167 166 165 163 164 164 163 162 161 153 153 135 144 140 156 153 152 154 150 144 147 145 134 133 139 125 83 83 11 32 42 36 13 317 16 328 319 318 162 218 188 199 213 214 220 241 259 260 265 269 275 282 275 269 278 303 318 326 339 339 336 336 340 350 0
190 197 201 199 200 197 196 195 191 190 188 183 186 189 191 196 196 183 186 182 173 176 174 171 172 174 170 168 155 157 164 166 165 173 169 179 169 171 166 148 153 158 140 151 156 167 167 159 236 270 252 198 234 246 247 234 287 306 293 181 219 219 220 220 217 233 245 246 255 257 265 280 283 281 295 309 307 308 310 317 315 326 331 335 349
197 204 200 203 199 200 197 195 197 192 191 183 182 186 199 199 196 190 192 188 181 181 183 180 180 178 177 169 168 166 170 171 171 164 192 187 194 182 179 153 162 169 144 154 182 192 196 198 211 238 257 277 272 260 253 255 240 269 283 280 200 219 217 228 220 229 241 237 248 253 258 269 274 277 286 293 299 294 298 306 320 325 328 328 326
204 210 207 203 201 201 196 195 200 197 193 187 186 192 197 195 199 194 200 196 189 192 191 190 181 184 183 180 181 181 180 167 173 172 175 184 194 193 190 160 171 184 143 152 163 199 211 221 227 244 256 258 261 268 265 262 262 229 267 273 263 213 219 219 216 231 239 243 251 259 256 260 279 293 284 282 291 301 302 311 313 319 320 320 320
210 208 206 207 208 203 199 200 198 197 196 189 200 193 194 201 202 198 197 197 201 196 193 188 194 190 189 186 184 185 191 188 183 182 174 197 195 194 193 184 186 186 180 195 189 206 221 217 223 232 231 246 249 262 258 269 261 243 225 269 263 251 242 240 232 239 242 241 252 261 261 257 265 274 270 278 290 293 300 308 316 317 314 317 318
211 204 202 210 204 202 205 205 199 195 195 195 202 198 194 200 205 203 198 198 206 200 192 198 198 193 197 194 193 192 193 192 195 195 192 200 196 201 200 197 179 183 172 198 186 201 217 220 231 233 229 236 239 245 241 264 271 247 224 247 265 248 243 241 238 229 237 241 248 256 262 256 261 271 266 269 266 273 280 294 298 301 309 315 316
201 213 208 205 196 195 207 206 203 197 195 202 203 204 196 204 202 202 201 202 203 203 205 202 201 202 200 196 196 200 195 197 199 199 197 198 194 201 206 204 195 190 197 208 195 206 211 214 212 217 221 228 237 237 224 251 264 272 240 230 253 264 264 258 268 264 251 240 239 243 253 257 251 258 271 259 250 258 269 278 277 284 299 312 319
207 216 208 195 196 200 201 203 204 200 199 205 205 207 204 203 199 200 205 204 199 206 208 207 207 206 201 199 201 200 199 202 201 204 204 200 203 207 207 204 209 206 203 205 193 188 215 228 226 218 223 219 243 246 225 233 256 256 254 238 252 263 257 249 246 253 254 250 235 238 239 242 240 237 243 253 239 233 239 249 256 268 283 296 310
219 213 200 194 207 199 200 202 200 203 205 206 206 209 209 205 202 204 205 202 203 205 209 209 209 207 205 204 204 202 201 204 203 205 206 210 211 208 210 215 214 210 209 210 212 214 204 230 242 233 241 240 253 256 234 229 252 260 252 254 249 259 252 247 243 242 246 245 238 236 234 229 234 233 220 229 234 226 234 242 242 251 263 288 292
214 201 191 211 205 200 201 196 199 203 205 206 206 208 208 208 207 209 208 203 206 208 213 212 210 209 206 207 206 206 204 206 203 206 204 211 212 215 215 214 213 214 215 210 198 207 200 209 228 210 231 225 234 244 234 244 240 250 254 249 239 248 251 252 238 233 238 242 240 239 238 234 228 233 249 229 232 237 239 241 237 231 242 255 281
212 202 208 213 190 203 194 205 198 205 203 206 204 207 204 207 204 209 209 208 207 211 212 213 212 209 206 212 209 208 208 206 204 203 206 206 210 213 217 217 210 211 215 215 211 219 216 222 216 212 229 232 235 240 230 240 244 245 240 225 239 243 244 247 246 240 232 238 231 236 228 229 229 234 229 240 242 233 230 237 235 229 219 223 265
213 213 216 200 206 205 197 205 197 204 206 206 205 205 205 205 205 205 208 206 211 214 213 213 212 209 211 212 210 211 208 208 206 202 207 207 210 213 215 208 206 208 215 216 213 211 217 226 221 214 225 235 230 243 221 245 242 256 259 246 245 240 246 252 249 246 241 229 231 233 222 221 222 223 225 230 225 215 216 219 217 217 209 224 263
212 211 209 203 212 207 201 203 203 204 205 203 205 206 204 206 205 203 207 204 211 216 216 212 211 214 211 213 211 212 210 209 207 205 211 211 212 216 212 204 195 203 209 214 215 218 220 221 226 215 218 236 225 243 245 234 251 254 266 265 253 246 250 246 247 244 249 233 239 233 228 227 221 220 220 221 225 262 252 220 196 191 185 208 260
216 212 211 206 210 204 205 207 209 203 202 203 202 203 205 204 204 206 204 208 213 216 215 209 213 213 213 215 210 210 212 211 207 206 213 216 215 215 213 199 193 202 210 211 219 212 218 214 228 213 210 223 235 233 246 246 244 264 270 260 261 244 249 251 244 251 242 245 239 235 228 225 212 221 219 215 216 220 219 204 184 165 169 193 239
215 212 211 212 210 206 206 210 208 203 203 203 201 201 202 207 208 208 209 212 216 216 212 213 212 210 214 212 209 211 212 212 209 207 213 215 217 216 216 203 194 202 209 216 220 210 210 214 220 224 201 218 229 223 232 228 244 250 255 255 251 248 251 249 246 245 241 233 239 242 230 228 214 216 214 209 212 206 201 193 178 174 187 200 218
216 211 210 210 211 210 207 210 208 203 200 198 191 197 197 203 207 211 219 218 216 214 212 217 209 215 212 208 209 212 210 210 210 208 212 212 216 217 217 203 201 202 211 219 220 210 209 208 221 216 215 232 230 234 220 223 264 258 264 268 250 253 255 245 245 244 243 232 234 234 232 223 212 217 207 209 204 202 193 189 183 189 193 206 208
215 210 210 211 210 209 202 212 205 197 197 195 194 192 197 202 209 214 219 216 214 212 216 216 215 216 210 210 211 212 210 209 210 206 211 210 215 215 213 211 203 205 213 221 217 215 205 204 208 194 210 224 233 201 210 160 249 274 253 268 274 240 243 237 239 240 233 229 224 228 226 213 219 210 211 201 205 199 197 189 191 189 200 207 215
217 207 210 211 208 207 207 215 195 197 203 200 197 198 201 200 199 209 212 210 209 208 219 214 216 213 212 214 214 212 210 210 207 207 209 207 211 211 212 212 203 210 216 219 215 209 200 200 187 211 201 214 230 181 193 135 228 233 287 313 304 287 241 225 235 238 232 228 219 220 219 215 218 210 185 187 201 200 198 200 194 196 199 193 218
215 208 214 211 210 209 216 212 200 199 204 202 198 205 204 206 204 215 202 213 213 214 219 215 209 214 215 215 214 211 208 211 206 205 208 208 210 209 212 207 208 205 210 217 213 213 203 200 192 206 204 218 227 197 181 185 214 142 138 347 292 344 334 311 270 249 239 236 221 222 215 215 217 199 192 186 192 198 202 200 201 204 204 195 201
219 215 211 212 211 213 213 207 206 203 203 204 206 209 205 205 211 213 200 205 206 202 212 210 208 211 221 215 216 211 208 211 206 205 208 210 207 210 208 206 209 203 208 213 211 218 202 203 200 206 197 227 206 225 187 192 179 130 270 215 233 92 307 289 321 296 235 241 212 225 201 215 204 175 154 196 201 194 202 195 202 206 204 201 203
215 213 208 209 212 212 209 205 205 203 204 202 203 201 194 196 199 192 155 197 226 197 203 220 213 215 222 215 219 206 210 212 207 207 207 210 208 209 207 208 206 206 206 214 215 215 207 205 198 199 200 218 231 203 214 193 199 200 178 113 41 309 229 257 271 272 341 244 253 240 213 201 197 182 184 213 197 195 194 201 210 209 204 200 206
219 215 208 212 211 214 209 208 208 208 207 203 199 191 197 194 184 191 200 205 216 206 210 215 209 212 217 219 212 206 211 213 210 211 210 209 211 207 207 207 210 208 207 215 219 214 212 205 203 203 212 210 224 220 225 205 209 208 217 224 173 198 190 228 38 287 319 259 323 0 230 199 187 173 191 197 198 203 196 208 204 213 205 204 208
224 212 212 218 215 215 207 205 206 207 205 203 192 191 199 199 200 203 206 206 213 221 219 221 216 219 215 211 212 203 208 210 213 211 211 210 211 209 209 211 212 211 207 211 217 216 213 211 199 204 212 202 202 228 231 191 203 236 225 236 250 219 138 143 249 52 314 318 321 224 231 211 189 181 194 207 199 201 207 203 205 206 204 206 205
221 204 218 219 213 213 207 205 205 205 201 197 191 194 198 200 203 209 211 215 215 223 211 217 215 210 205 214 204 208 205 209 211 211 211 209 208 212 211 212 213 213 204 212 217 214 212 213 203 207 206 201 201 218 234 186 198 223 200 230 239 246 212 253 179 219 256 289 280 277 215 224 199 211 204 204 203 206 206 205 207 203 202 207 206
213 207 216 215 213 212 210 207 207 205 204 194 195 197 201 201 204 207 214 221 222 229 216 211 208 199 211 207 205 209 207 209 211 211 210 211 207 212 211 214 214 215 208 218 217 210 211 210 205 204 207 207 207 217 224 225 195 223 161 221 225 235 231 231 219 174 234 252 268 251 247 323 230 236 224 214 211 213 212 208 205 199 200 206 201
212 215 223 217 215 208 209 207 212 205 202 197 197 200 202 203 207 210 215 220 218 226 212 215 207 197 215 212 210 210 209 209 212 211 211 210 211 210 213 216 216 214 210 219 215 213 213 212 210 207 207 210 208 208 219 227 213 213 203 187 200 221 230 236 220 218 235 224 258 253 232 205 251 224 204 212 219 216 214 210 199 205 212 208 199
211 210 219 213 211 207 209 209 214 207 200 201 197 203 201 203 210 211 214 219 216 215 214 223 211 203 216 216 211 213 207 214 209 212 212 211 213 210 212 217 216 213 214 215 216 213 212 211 212 208 208 209 208 209 217 226 220 212 209 201 211 203 210 215 218 204 217 231 243 253 252 230 240 257 210 210 213 216 208 199 202 208 208 204 200